User: anonymous   Login
Location: Charleston
(38.3500°N, 81.6330°W)
Time: 22:45:56
(UTC-04:00)
Language:

Cosmos 1812 Rocket - Orbit

View from above orbital plane
View from above orbital plane
View from above satellite
View from above satellite

Ground track
Ground track

The orbit data is extracted from the following two-line orbital elements,

1 17296U 87003B   14297.05703657  .00000768  00000-0  91891-4 0  7811
2 17296 082.5323 209.0620 0020044 164.2510 282.4157 14.82723950499785
Epoch (UTC): 24 October 2014 01:22:07
Eccentricity: 0.0020044
inclination: 82.5323°
perigee height: 607 km
apogee height: 635 km
right ascension of ascending node: 209.0620°
argument of perigee: 164.2510°
revolutions per day: 14.82723950
mean anomaly at epoch: 282.4157°
orbit number at epoch: 49978

The dashed part of the orbit path shows where the satellite is in the earth's shadow,  

DLR